Volver al catálogo

STARLINK-30107

ActivoComunicacionesVLEO
NORAD 56287·PAYLOAD·🇺🇸 United States

Lanzado Apr 19, 2023 desde Cape Canaveral Space Force Station

Loading…

Próximos Pases (próximas 24 horas)

TLE

ActualizadoSource: CelesTrak SupGP

Época: Sep 14, 2026, 21:11 UTC

1 56287C 23056B   26257.88312500  .00019494  00000+0  70604-3 0  2576
2 56287  43.0007 202.6877 0001204 261.4945  82.4511 15.27570494    10

Sigue STARLINK-30107 en tiempo real con AllMySat

Download on the App Store